Hourly Data Report for September 15, 2017

All times are specified in Local Standard Time (LST). Add 1 hour to adjust for Daylight Saving Time where and when it is observed.

MONCTON INTL A
NEW BRUNSWICK

46°06'44.000" N
64°40'43.000" W
70.70 m
8103201
71705
YQM

Download Data

Hourly Data (September 2017)
Hourly Data Report for September 15, 2017
Temp Definition
°C
Dew Point Temp Definition
°C
Rel Hum Definition
%
Wind Dir Definition
10's deg

Wind Spd Definition
km/h
Visibility Definition
km
Stn Press Definition
kPa
Hmdx Definition


Wind Chill Definition


Weather Definition


TIME
00:00 Legend Double Dagger 17.9 14.2 79 0 1 24.1 100.47     LegendNANA
01:00 Legend Double Dagger 13.4 12.6 95 34 9 24.1 100.57     LegendNANA
02:00 Legend Double Dagger 12.9 12.0 94 35 12 24.1 100.63     Clear
03:00 Legend Double Dagger 12.9 11.8 93 1 5 24.1 100.67     LegendNANA
04:00 Legend Double Dagger 12.9 12.4 97 4 8 24.1 100.73     LegendNANA
05:00 Legend Double Dagger 13.9 13.6 98 4 9 24.1 100.81     Mostly Cloudy
06:00 Legend Double Dagger 13.9 13.5 97 5 11 19.3 100.89     LegendNANA
07:00 Legend Double Dagger 13.8 12.6 92 7 9 24.1 101.01     LegendNANA
08:00 Legend Double Dagger 15.5 12.7 83 7 9 24.1 101.08     Mainly Clear
09:00 Legend Double Dagger 16.7 11.7 72 7 12 24.1 101.15     LegendNANA
10:00 Legend Double Dagger 18.6 12.1 66 6 9 24.1 101.21     LegendNANA
11:00 Legend Double Dagger 19.4 10.8 57 8 8 24.1 101.21     Mainly Clear
12:00 Legend Double Dagger 20.9 10.5 51 7 13 24.1 101.17     LegendNANA
13:00 Legend Double Dagger 21.8 12.0 53 5 11 24.1 101.13     LegendNANA
14:00 Legend Double Dagger 21.4 12.9 58 3 15 24.1 101.11     Mainly Clear
15:00 Legend Double Dagger 21.4 13.7 61 3 11 24.1 101.11 25   LegendNANA
16:00 Legend Double Dagger 21.1 13.3 61 2 14 24.1 101.10     LegendNANA
17:00 Legend Double Dagger 19.6 13.7 69 3 12 24.1 101.13     Mainly Clear
18:00 Legend Double Dagger 17.7 11.3 66 6 10 24.1 101.15     LegendNANA
19:00 Legend Double Dagger 15.1 10.5 74 9 14 24.1 101.20     LegendNANA
20:00 Legend Double Dagger 15.3 10.0 70 11 14 24.1 101.21     Mainly Clear
21:00 Legend Double Dagger 12.9 10.2 84 10 13 24.1 101.21     LegendNANA
22:00 Legend Double Dagger 12.6 10.3 85 6 4 24.1 101.20     LegendNANA
23:00 Legend Double Dagger 11.0 9.6 91 9 5 24.1 101.18     Mainly Clear

Notes on Data Quality.

Legend

  • E = Estimated
  • M = Missing
  • NA = Not Available
  • ‡ = Partner data that is not subject to review by the National Climate Archives
Date modified: